Location: College Park
(38.9810°N, 76.9370°W)
Time: 11:20:50
(UTC-05:00)

N. Korean satellite - Pass Details

Date: 17 November 2017
Orbit: 460 x 514 km, 97.2° (Epoch: 21 November)

Event Time Altitude Azimuth Distance (km) Brightness Sun altitude
Rises 17:35:17 0° 145° (SE) 2,479 10.0 -8.7°
Reaches altitude 10° 17:37:28 10° 134° (SE) 1,614 8.9 -9.1°
Maximum altitude 17:40:31 30° 72° (ENE) 872 7.3 -9.6°
Drops below altitude 10° 17:43:38 10° 10° (N) 1,646 9.0 -10.2°
Sets 17:45:52 0° 360° (N) 2,538 10.0 -10.6°
